Regional Weather Roundup
Issued by NWS

Home | Current Version | Previous Version | Graphics & Text | Print | Product List | Glossary On
Versions: 1 2 3 4 5 6 7 8 9 10 11 12 13 14 15 16 17 18 19 20 21 22 23 24 25 26 27 28 29 30 31 32 33 34 35 36 37 38 39 40 41 42 43 44 45 46 47 48 49 50
000
ASUS43 KLSX 232207
RWRMO

WEATHER SUMMARY FOR MISSOURI
NATIONAL WEATHER SERVICE SPRINGFIELD MO
500 PM CDT WED MAY 23 2018

NOTE: "FAIR" INDICATES FEW OR NO CLOUDS BELOW 12,000 FEET WITH NO
       SIGNIFICANT WEATHER AND/OR OBSTRUCTIONS TO VISIBILITY.
       CURRENT SKY AND/OR WEATHER CONDITIONS ARE NOT AVAILABLE FOR
       CHILLICOTHE AND FARMINGTON.

MOZ001>031-035>038-043-044-053-054-232300-
...NORTHERN AND WESTERN MISSOURI...

CITY           SKY/WX    TMP DP  RH WIND       PRES   REMARKS
KANSAS CTY INT PTSUNNY   87  64  46 SE15      30.04S
KANSAS C DTWN  MOSUNNY   90  64  42 SE13G18   30.02S HX  91
LEE`S SUMMIT   SUNNY     87  66  49 S13       30.05S
ST JOSEPH      SUNNY     89  64  43 SE15G24   30.02S HX  90
CHILLICOTHE      N/A     88  66  48 SE7G22    30.05S HX  90
KIRKSVILLE     SUNNY    N/A N/A N/A SE9       30.09F

$$
MOZ066>068-077>081-088>096-101>105-232300-
...SOUTHWEST MISSOURI...

CITY           SKY/WX    TMP DP  RH WIND       PRES   REMARKS
SPRINGFIELD    CLOUDY    70  65  84 S12       30.11S
JOPLIN         LGT RAIN  73  69  87 SW6       30.07F
BRANSON        CLOUDY    68  66  94 SW8       30.14S

$$
MOZ032>034-039>042-045>050-055>058-069>072-232300-
...CENTRAL MISSOURI...

CITY           SKY/WX    TMP DP  RH WIND       PRES   REMARKS
COLUMBIA       MOSUNNY   84  66  54 E9        30.08S
JEFFERSON CITY MOSUNNY   86  65  49 E9        30.06F
ROLLA          MOSUNNY   84  65  52 E12       30.09F
SEDALIA        SUNNY     88  70  55 SE10      30.07S HX  93
WHITEMAN AFB   MOSUNNY   87  67  50 SE8       30.02S HX  90
WARRENSBURG    SUNNY     86  64  48 E8        30.05S
OSAGE BEACH    MOSUNNY   86  69  56 VRB7      30.07F HX  90

$$
MOZ051-052-059>065-232300-
...EAST CENTRAL MISSOURI...

CITY           SKY/WX    TMP DP  RH WIND       PRES   REMARKS
ST LOUIS INTL  MOSUNNY   85  64  49 E9        30.10F
SPIRIT OF STL  SUNNY     86  64  47 NE9G17    30.08F
ST CHARLES     MOSUNNY   85  67  54 NE8       30.08F

$$
MOZ072>076-082>087-097>100-106>115-232300-
...SOUTH CENTRAL AND SOUTHEAST MISSOURI...

CITY           SKY/WX    TMP DP  RH WIND       PRES   REMARKS
CAPE GIRARDEAU FAIR      87  65  47 NE10      30.06F
FARMINGTON     MOSUNNY   84  66  54 E9        30.10F
POPLAR BLUFF   FAIR      87  65  47 NE7       30.06S
WEST PLAINS    CLOUDY    81  70  69 CALM      30.11R

$$




USA.gov is the U.S. government's official web portal to all federal, state and local government web resources and services.